Temp
8 8 8 7 7 7 7 7 7 7 6 6 6 6 6 5 5 5 5 5 5 4 4 4 4 4 4 4 4 4 4 4 4 4 4 4 4 4 4 4 4 4 4
8 7 7 7 7 7 7 7 7 6 6 6 6 6 5 5 5 5 5 5 4 4 4 4 4 4 3 3 3 3 3 3 3 3 4 3 3 4 4 4 4 4 4
7 7 7 7 7 7 7 7 6 6 6 6 6 6 5 5 5 5 5 5 4 4 4 4 3 3 3 3 3 3 3 3 3 3 3 3 3 3 3 3 3 3 4
7 7 7 7 7 7 7 6 6 6 6 6 6 5 5 5 5 5 4 4 4 4 4 3 3 3 3 3 2 2 2 2 3 3 3 3 3 3 3 3 3 3 3
7 7 6 6 6 6 6 6 6 6 6 6 5 5 5 5 5 4 4 4 4 3 3 3 3 3 2 2 2 2 2 2 2 2 2 2 3 3 3 3 3 3 3
6 6 6 6 6 6 6 6 6 6 6 5 5 5 5 5 4 4 4 4 4 3 3 3 3 3 2 2 2 2 2 2 2 2 2 2 2 2 2 2 2 2 3
5 5 5 5 5 5 5 6 6 6 5 5 5 5 5 4 4 4 4 4 3 3 2 3 2 2 2 2 2 2 2 1 2 2 2 2 2 2 2 2 2 2 2
5 5 5 5 5 5 5 5 5 5 5 5 5 4 4 4 4 4 4 3 3 3 2 2 2 2 2 2 2 2 1 1 1 1 1 1 1 1 1 2 2 2 2
5 5 5 5 4 4 4 4 5 5 5 5 4 4 4 4 4 4 3 3 3 3 2 2 2 2 1 1 1 2 1 1 1 1 1 1 0 1 1 1 1 1 2
5 5 4 4 4 4 4 4 4 4 4 4 4 4 4 4 3 3 3 3 3 3 2 2 1 1 1 1 1 1 1 1 1 0 0 0 0 1 0 0 1 1 1
5 4 4 4 4 4 4 4 3 4 3 3 3 3 3 3 3 3 3 3 3 2 2 1 1 1 0 0 0 0 1 0 0 -0 -0 -0 -0 0 0 0 0 1 1
5 4 4 4 4 3 3 3 3 3 3 3 3 3 3 3 3 2 2 2 2 2 2 1 1 1 0 0 0 0 -0 0 -0 -1 -1 -0 -1 -1 -0 0 0 0 0
4 4 4 3 3 3 3 3 3 3 3 3 3 3 2 2 2 2 2 1 1 2 1 1 0 0 0 -0 0 -0 0 -1 -0 -0 -1 -1 -1 -1 -1 -0 -0 -0 -0
3 3 4 4 3 3 3 3 3 3 3 3 2 2 2 2 2 2 1 1 1 1 1 1 -0 -0 -0 -0 -1 -1 -1 -1 -1 -2 -2 -2 -2 -1 -1 -1 -1 -1 -1
3 3 3 3 3 3 3 2 2 2 2 2 2 2 2 2 1 1 1 1 1 1 -0 -1 0 -1 -1 -1 -1 -1 -2 -1 -2 -2 -2 -2 -2 -1 -1 -1 -1 -1 -1
4 3 3 3 2 2 2 2 2 2 2 2 2 1 1 1 2 1 1 -0 0 1 -0 0 0 -1 -1 -1 -1 -2 -2 -2 -2 -3 -3 -2 -2 -2 -1 -1 -1 -1 -1
3 3 3 2 2 2 1 1 1 1 1 1 1 1 1 1 1 0 -0 -0 -0 -0 -1 -1 -1 -1 -1 -1 -2 -3 -3 -3 -3 -3 -2 -2 -2 -2 -2 -2 -2 -2 -2
2 2 2 2 2 1 1 1 1 1 1 1 1 1 1 0 1 0 -1 -1 -1 -1 -2 -2 -1 -1 -2 -3 -3 -4 -3 -3 -3 -3 -3 -3 -3 -3 -3 -3 -3 -3 -3
2 2 1 1 0 0 0 0 0 0 1 0 0 0 -0 -0 -1 -0 -1 -1 -1 -1 -2 -2 -2 -3 -3 -4 -3 -3 -4 -3 -4 -4 -4 -4 -4 -4 -4 -4 -5 -6 -6
2 1 1 -0 -1 -1 -1 -1 -1 0 0 -0 -1 -1 -1 -1 -1 -1 -1 -1 -2 -2 -3 -3 -4 -4 -4 -4 -3 -4 -4 -4 -4 -5 -4 -5 -5 -5 -6 -7 -8 -8 -8
1 0 -0 -1 -2 -1 -1 -1 -1 -1 -2 -2 -1 -1 -2 -2 -2 -2 -2 -3 -3 -4 -4 -4 -4 -4 -4 -4 -4 -4 -5 -4 -5 -6 -5 -6 -6 -8 -9 -9 -9 -9 -8
-0 -1 -2 -2 -2 -1 -2 -2 -3 -2 -3 -1 -1 -2 -2 -2 -2 -2 -3 -3 -4 -4 -4 -3 -4 -4 -4 -4 -5 -5 -6 -6 -6 -8 -7 -8 -9 -9 -9 -9 -9 -9 -9
-2 -2 -2 -2 -2 -2 -2 -2 -3 -3 -3 -3 -3 -3 -3 -3 -3 -4 -4 -4 -4 -4 -4 -4 -4 -4 -5 -5 -6 -7 -7 -8 -9 -10 -10 -9 -9 -9 -9 -9 -9 -9 -10
-0 -1 -1 -3 -3 -3 -3 -2 -4 -4 -4 -4 -4 -3 -4 -4 -4 -4 -3 -4 -4 -4 -4 -5 -5 -6 -6 -7 -8 -8 -9 -9 -10 -10 -10 -8 -10 -9 -10 -10 -10 -10 -11
-0 -2 -3 -2 -2 -4 -4 -4 -4 -4 -4 -4 -4 -4 -3 -3 -3 -3 -4 -4 -4 -5 -5 -6 -7 -7 -8 -9 -9 -10 -10 -10 -10 -10 -10 -10 -10 -10 -10 -10 -11 -11 -11
-3 -2 -3 -3 -3 -3 -3 -4 -4 -4 -4 -4 -4 -3 -3 -4 -4 -4 -4 -5 -5 -6 -6 -7 -8 -9 -9 -9 -10 -10 -10 -10 -10 -10 -11 -10 -10 -10 -9 -9 -10 -11 -11
Height
3166 3167 3168 3169 3170 3170 3170 3170 3170 3170 3170 3170 3170 3170 3169 3169 3168 3166 3166 3165 3165 3164 3163 3162 3161 3160 3159 3158 3157 3157 3156 3155 3155 3154 3153 3152 3151 3151 3150 3149 3149 3149 3148
3163 3164 3165 3166 3166 3167 3167 3167 3167 3167 3167 3167 3167 3167 3167 3166 3166 3165 3163 3163 3162 3161 3160 3159 3158 3157 3157 3156 3156 3155 3154 3153 3153 3152 3151 3150 3149 3148 3148 3147 3146 3145 3144
3159 3160 3161 3162 3163 3163 3163 3164 3164 3164 3164 3164 3164 3164 3163 3163 3163 3162 3160 3161 3159 3159 3157 3156 3154 3154 3153 3153 3153 3153 3152 3151 3150 3149 3148 3148 3146 3145 3144 3143 3142 3141 3140
3156 3157 3157 3158 3158 3159 3160 3160 3160 3160 3160 3160 3160 3160 3159 3159 3159 3159 3157 3156 3156 3156 3155 3153 3151 3150 3150 3149 3149 3149 3148 3147 3147 3146 3145 3144 3143 3142 3140 3139 3138 3137 3136
3151 3152 3153 3153 3154 3154 3155 3155 3156 3156 3156 3156 3155 3155 3155 3155 3155 3154 3154 3153 3152 3151 3151 3150 3148 3147 3146 3145 3145 3144 3143 3143 3142 3142 3141 3140 3139 3137 3136 3135 3134 3133 3131
3146 3146 3147 3148 3148 3149 3150 3150 3151 3151 3151 3151 3150 3150 3150 3151 3150 3150 3149 3149 3147 3146 3145 3146 3144 3143 3142 3141 3140 3139 3139 3138 3137 3137 3136 3135 3134 3133 3131 3130 3128 3127 3126
3139 3140 3141 3142 3143 3144 3145 3145 3145 3146 3145 3146 3145 3145 3144 3145 3145 3145 3144 3144 3143 3142 3141 3139 3139 3138 3136 3135 3134 3133 3133 3133 3132 3131 3130 3129 3128 3126 3125 3123 3122 3121 3119
3134 3134 3135 3136 3137 3137 3138 3139 3140 3140 3140 3140 3140 3139 3138 3139 3140 3139 3138 3137 3137 3137 3136 3134 3133 3132 3131 3130 3128 3126 3126 3126 3125 3124 3123 3122 3121 3119 3117 3116 3114 3113 3112
3128 3128 3129 3130 3130 3130 3132 3133 3133 3133 3134 3134 3134 3133 3132 3131 3133 3133 3132 3131 3129 3129 3129 3128 3127 3125 3124 3122 3122 3119 3120 3118 3117 3116 3115 3114 3112 3111 3109 3107 3106 3104 3102
3122 3123 3123 3124 3124 3124 3124 3126 3126 3126 3125 3125 3127 3127 3125 3126 3125 3124 3125 3124 3123 3121 3122 3120 3120 3117 3116 3115 3115 3113 3114 3111 3109 3108 3107 3105 3103 3102 3100 3099 3097 3095 3093
3113 3114 3115 3116 3117 3116 3116 3118 3119 3118 3119 3117 3119 3120 3119 3119 3117 3117 3114 3117 3116 3115 3113 3112 3110 3109 3108 3106 3106 3105 3104 3102 3101 3099 3097 3096 3094 3093 3091 3089 3087 3084 3083
3102 3105 3106 3106 3107 3107 3107 3109 3110 3109 3110 3110 3109 3111 3112 3111 3110 3110 3108 3104 3106 3105 3105 3103 3102 3101 3099 3099 3097 3095 3093 3092 3091 3088 3087 3085 3084 3082 3080 3078 3076 3073 3071
3092 3095 3096 3096 3098 3099 3099 3099 3100 3100 3102 3101 3102 3101 3100 3102 3100 3100 3098 3095 3094 3094 3094 3093 3092 3091 3090 3089 3086 3086 3085 3080 3080 3079 3077 3075 3072 3070 3069 3067 3065 3063 3060
3084 3085 3085 3085 3086 3087 3089 3089 3089 3090 3091 3092 3092 3089 3089 3092 3091 3088 3087 3086 3085 3083 3083 3080 3081 3077 3078 3078 3075 3073 3072 3070 3067 3068 3066 3063 3060 3059 3057 3054 3052 3051 3048
3073 3075 3075 3076 3077 3077 3078 3079 3079 3079 3080 3080 3080 3080 3081 3081 3080 3078 3074 3063 3072 3070 3070 3067 3069 3069 3067 3066 3064 3061 3059 3056 3055 3055 3054 3051 3048 3047 3045 3042 3039 3037 3034
3065 3066 3065 3065 3067 3068 3069 3069 3070 3070 3070 3070 3071 3071 3072 3071 3066 3067 3059 3058 3061 3058 3057 3059 3061 3057 3057 3054 3052 3049 3047 3047 3045 3043 3043 3039 3037 3035 3032 3029 3026 3023 3020
3057 3057 3057 3057 3058 3059 3060 3060 3060 3061 3060 3061 3062 3062 3062 3062 3056 3055 3054 3053 3047 3048 3048 3050 3049 3048 3045 3043 3040 3038 3037 3035 3034 3033 3031 3028 3025 3021 3018 3015 3012 3009 3005
3047 3048 3049 3049 3050 3050 3051 3051 3051 3051 3051 3052 3052 3053 3052 3052 3051 3050 3047 3045 3045 3040 3040 3041 3038 3036 3034 3033 3032 3030 3028 3026 3023 3022 3018 3016 3013 3009 3005 3001 2998 2993 2990
3038 3038 3038 3039 3039 3040 3041 3041 3041 3041 3041 3041 3042 3043 3044 3044 3044 3042 3041 3038 3035 3033 3032 3030 3028 3027 3026 3025 3022 3019 3016 3015 3014 3012 3007 3004 3000 2995 2990 2987 2983 2980 2977
3029 3029 3029 3031 3032 3034 3034 3035 3034 3033 3032 3032 3033 3035 3035 3035 3035 3034 3032 3030 3026 3025 3023 3022 3021 3020 3018 3015 3012 3009 3008 3005 3004 3000 2995 2989 2986 2981 2978 2975 2972 2970 2966
3022 3022 3023 3025 3026 3027 3027 3026 3025 3023 3023 3024 3026 3026 3027 3027 3027 3025 3024 3022 3019 3018 3018 3016 3014 3012 3009 3005 3003 3000 2996 2992 2991 2987 2981 2978 2974 2970 2969 2967 2964 2961 2956
3017 3019 3020 3021 3021 3021 3019 3019 3017 3015 3018 3019 3018 3020 3019 3020 3020 3019 3016 3015 3014 3013 3010 3007 3005 3002 2999 2995 2992 2988 2983 2980 2978 2976 2969 2969 2964 2963 2962 2959 2956 2951 2946
3015 3016 3016 3016 3017 3017 3014 3014 3013 3010 3006 3011 3015 3013 3015 3013 3014 3012 3012 3010 3008 3005 3002 3000 2996 2992 2989 2986 2981 2977 2974 2969 2968 2965 2960 2960 2957 2954 2953 2950 2946 2941 2935
3013 3013 3013 3013 3013 3012 3012 3011 3010 3010 3010 3011 3011 3011 3011 3010 3009 3008 3007 3004 3001 2998 2994 2991 2987 2983 2979 2975 2971 2969 2966 2963 2961 2959 2953 2948 2948 2945 2945 2943 2937 2932 2927
3010 3009 3010 3010 3009 3009 3010 3009 3009 3009 3009 3009 3009 3007 3006 3005 3004 3003 3000 2997 2994 2989 2986 2982 2977 2973 2969 2966 2964 2962 2959 2957 2955 2954 2947 2941 2942 2934 2935 2934 2929 2924 2919
3008 3009 3008 3008 3007 3007 3008 3008 3009 3009 3009 3007 3005 3004 3002 3001 2999 2996 2993 2989 2985 2980 2975 2970 2967 2965 2963 2961 2959 2957 2955 2952 2948 2947 2939 2933 2935 2926 2920 2926 2921 2915 2910
Wind_Speed
19 19 17 17 17 16 17 16 16 16 16 15 16 17 15 16 16 17 18 16 14 14 14 14 15 14 13 13 12 12 11 11 11 11 11 11 12 13 14 14 15 16 17
22 22 21 20 20 20 20 20 20 19 20 19 19 19 19 18 19 19 21 17 15 15 16 16 16 15 14 13 13 12 12 13 14 14 14 14 14 15 16 16 17 17 18
24 24 24 23 24 24 24 24 23 23 23 22 22 22 21 21 21 21 23 18 18 17 19 19 17 16 15 15 15 16 16 16 15 15 15 15 16 17 18 18 19 19 19
26 26 27 27 27 27 27 27 26 26 26 25 25 24 23 23 23 23 22 22 20 20 20 18 18 19 19 19 19 20 20 19 19 17 17 18 18 18 19 20 21 21 22
28 28 28 29 29 29 29 29 29 28 28 27 27 27 26 25 25 25 23 23 23 23 22 21 20 19 20 21 23 23 21 21 21 20 20 21 21 21 22 23 24 24 25
33 33 32 31 32 31 31 30 31 30 30 29 30 29 29 28 27 27 26 25 25 26 27 23 24 21 23 23 24 24 24 24 24 25 25 25 26 25 26 26 26 27 27
34 35 34 33 32 32 31 32 32 32 32 32 32 32 32 31 30 29 29 28 27 27 29 29 27 27 25 25 26 25 26 27 28 29 30 30 30 30 30 30 30 29 30
35 35 33 34 33 33 31 32 33 33 34 34 33 34 35 35 33 31 31 30 30 30 30 30 30 29 29 29 25 26 25 29 33 34 34 34 34 33 34 34 34 33 33
35 35 35 34 35 35 33 33 33 33 34 35 35 36 37 38 37 34 33 33 34 33 33 33 33 36 38 34 34 32 31 34 33 35 37 38 37 37 37 37 38 37 37
36 35 36 34 34 37 37 37 37 36 35 38 37 38 40 39 38 39 36 37 37 38 36 36 37 39 38 41 38 39 36 38 38 38 40 41 41 41 40 40 40 40 40
42 41 41 41 41 40 41 40 40 41 39 40 39 38 40 40 40 39 41 38 39 39 39 40 40 39 37 40 40 42 42 43 41 42 41 45 45 44 44 44 43 43 42
43 44 45 46 46 46 45 43 43 43 41 42 43 41 42 43 44 41 41 44 41 41 40 41 40 39 41 39 50 43 45 46 44 43 47 45 46 46 45 46 46 45 44
41 39 42 49 51 49 48 48 48 48 45 43 43 44 46 46 46 45 45 45 46 45 44 45 44 44 41 41 45 46 50 47 47 47 45 47 46 46 46 46 47 47 46
38 37 37 39 42 48 52 54 54 55 52 51 50 50 49 47 48 50 52 46 50 47 48 48 54 41 48 49 53 49 56 53 49 45 48 49 47 46 48 47 47 48 48
42 42 43 43 42 43 45 50 53 54 54 52 52 52 51 50 52 55 60 47 55 54 52 44 50 46 49 49 51 54 54 48 47 46 46 46 46 47 48 48 49 50 50
36 36 38 40 41 43 45 46 47 49 50 51 52 51 51 51 51 52 51 48 54 50 45 44 47 43 46 50 47 46 41 45 46 45 45 43 44 49 50 50 51 53 53
37 38 38 38 38 39 42 45 47 48 47 45 45 47 50 50 42 48 46 45 44 40 37 39 44 48 44 44 37 37 39 41 40 41 42 43 47 49 51 52 54 55 56
40 41 41 42 41 41 40 41 43 43 45 45 44 44 44 44 45 40 45 40 39 42 44 43 41 41 37 37 36 36 36 37 38 40 43 46 49 51 53 54 55 55 54
36 38 40 42 42 40 39 38 38 39 42 42 41 41 38 35 37 40 43 44 47 42 42 40 40 37 35 35 37 36 37 40 41 43 45 47 49 52 52 52 50 46 44
31 33 34 35 34 33 34 34 36 39 40 39 33 31 34 33 39 37 39 41 39 42 39 37 33 33 34 36 37 38 39 41 43 44 47 49 49 48 45 42 40 39 40
22 21 21 21 24 27 32 35 37 34 33 28 30 34 30 35 34 35 35 37 34 31 31 31 31 34 35 36 39 41 42 44 44 46 47 45 44 40 33 34 35 35 38
10 10 13 17 21 24 27 29 31 34 28 27 26 28 36 32 34 34 32 29 27 28 29 32 34 36 38 41 43 44 45 46 44 37 41 32 31 30 31 31 30 32 37
10 12 15 17 19 25 17 13 12 14 10 18 21 17 21 22 24 23 24 26 27 28 32 35 38 40 43 44 44 43 42 42 34 27 29 27 29 31 29 28 29 32 36
10 15 12 10 13 13 12 14 13 13 12 12 14 15 17 16 18 19 24 25 29 32 36 39 41 42 43 43 41 37 31 24 22 23 30 34 30 32 28 24 27 29 31
9 5 7 9 11 12 11 9 8 8 9 10 11 13 14 16 20 23 27 30 33 37 40 41 41 41 37 32 26 20 20 23 26 23 29 34 29 34 28 21 23 26 27
3 5 7 6 5 5 5 6 7 7 7 9 12 15 18 22 26 29 32 35 38 40 40 38 34 28 21 17 18 21 23 25 28 26 30 35 28 34 35 19 21 24 26
Wind_Direction
249 252 254 257 258 259 261 261 262 264 267 269 269 270 280 291 295 300 310 305 302 302 302 304 301 299 297 293 291 291 293 295 299 300 301 302 303 303 303 300 298 296 292
251 252 254 258 259 259 260 262 263 265 266 267 270 271 276 287 292 297 304 298 296 298 302 304 300 298 293 288 287 290 294 296 299 300 301 303 306 306 305 303 299 295 292
251 253 257 260 260 258 259 260 263 264 266 267 270 273 274 283 288 294 297 292 291 293 298 299 298 295 290 283 281 284 291 296 296 296 299 302 305 306 305 303 300 297 292
255 258 262 263 260 258 259 259 261 263 265 267 269 271 273 277 282 288 289 289 291 291 296 301 298 297 291 286 285 284 285 287 286 288 294 298 301 304 305 304 302 299 295
257 260 264 265 261 259 259 259 259 261 264 267 269 270 272 274 280 283 283 284 286 287 287 293 294 294 294 292 291 287 286 280 284 286 290 293 295 300 302 303 302 300 297
259 261 265 266 264 261 259 259 259 259 262 264 267 268 270 272 276 280 279 280 280 281 284 286 288 292 297 295 295 290 282 282 282 285 288 291 293 295 298 300 301 300 297
259 262 263 262 263 263 261 258 257 258 260 263 265 267 269 269 272 276 277 279 280 277 278 283 286 288 293 294 296 292 284 283 284 285 287 289 290 292 295 296 297 298 297
263 262 261 261 261 262 262 260 258 259 260 263 267 266 266 268 271 274 275 276 277 277 279 279 283 285 288 289 292 291 289 288 287 286 286 287 289 290 292 294 295 296 296
263 264 260 260 262 262 263 264 263 262 263 262 263 264 266 269 272 273 274 273 273 276 277 279 282 286 282 281 286 282 282 285 286 286 287 286 286 287 290 292 292 294 294
266 265 263 260 266 266 264 264 264 264 263 264 261 265 266 270 273 273 271 270 271 275 279 280 284 284 273 281 281 280 280 283 285 288 289 287 285 285 288 290 290 292 291
267 264 262 260 259 261 264 266 265 265 265 266 264 265 265 267 269 272 273 269 271 275 275 278 280 273 278 280 277 279 284 281 287 284 286 289 286 285 287 290 290 290 289
264 261 261 261 261 261 263 263 263 263 264 265 267 266 266 268 271 269 268 272 271 269 270 276 276 273 276 279 282 277 276 282 283 283 282 284 285 285 287 288 288 288 289
262 263 260 257 257 257 258 261 262 264 264 264 266 268 267 265 267 266 265 265 268 272 269 272 271 272 276 278 280 289 280 278 283 284 279 284 284 284 287 287 288 289 289
261 261 259 258 258 256 256 260 263 265 266 265 264 264 264 265 265 265 263 264 267 267 273 271 275 271 291 288 281 278 286 277 273 286 281 282 282 283 284 285 287 287 287
264 263 263 262 261 260 259 259 260 263 265 265 264 262 264 267 266 266 271 257 267 260 275 287 289 289 284 287 291 285 282 278 275 279 280 279 281 283 285 287 288 287 288
261 262 261 261 258 259 261 262 263 264 266 266 266 264 265 267 268 269 271 260 263 264 271 278 285 282 283 289 286 285 283 282 283 284 279 280 284 287 288 288 288 289 290
262 261 261 262 263 262 261 262 264 265 266 267 267 267 268 268 281 273 284 271 275 278 283 297 297 292 294 286 282 284 282 281 282 282 282 283 284 286 287 288 289 291 293
263 262 262 262 263 265 266 267 266 266 268 269 267 268 269 270 274 281 279 285 288 295 292 294 292 292 288 287 285 281 283 286 288 287 288 288 289 290 291 293 295 294 293
266 264 262 260 260 262 267 271 272 272 267 266 265 265 269 270 274 276 276 281 287 291 295 293 291 287 285 283 284 287 289 288 289 289 288 290 292 293 294 295 294 293 292
267 265 264 263 263 266 268 271 270 269 270 266 261 257 263 263 273 270 279 282 290 293 291 287 287 287 287 289 290 288 287 288 289 292 294 295 295 295 295 295 294 292 292
270 271 268 264 264 269 270 275 269 272 262 257 255 254 257 274 269 283 282 289 292 290 287 287 288 289 289 289 289 290 292 293 296 298 297 296 295 293 294 288 290 292 292
274 274 273 270 275 281 283 283 280 260 253 246 251 267 277 260 277 283 288 285 285 284 293 293 294 293 292 291 291 298 302 301 302 301 294 295 292 291 291 296 296 292 288
269 267 272 276 285 288 294 284 303 298 254 250 257 282 286 282 276 286 286 285 293 292 291 291 291 292 293 295 301 305 304 302 303 302 300 301 295 296 303 304 298 291 289
275 274 281 306 294 284 282 285 297 286 278 279 279 285 287 288 288 297 294 293 293 292 292 293 294 298 301 303 302 302 301 303 306 312 306 301 309 306 307 305 295 292 291
292 266 303 312 323 304 303 302 304 306 304 306 304 303 302 307 302 295 293 294 293 293 294 298 302 303 303 304 304 307 311 314 312 317 306 304 314 307 312 313 301 298 297
311 295 342 346 17 20 7 1 347 319 298 309 310 313 310 302 298 296 295 296 297 299 302 304 305 307 309 313 317 317 315 316 316 321 313 314 323 317 315 324 316 312 308